Temp_Advection
nan nan nan nan nan nan nan nan nan nan nan nan nan nan nan nan nan nan nan nan nan nan nan nan nan nan nan nan nan nan nan nan nan nan nan nan nan nan nan nan nan nan nan nan nan nan nan
nan -0 -0 -0 -0 -0 -0 -0 -0 -0 -0 -0 -0 -0 -0 -0 -0 -0 -0 -0 -0 -0 -0 -0 -0 0 0 0 0 0 0 0 0 0 0 0 0 0 -0 0 0 -0 0 -0 -0 -0 nan
nan -0 -0 -0 -0 -0 -0 -0 -0 -0 -0 -0 -0 -0 -0 -0 -0 -0 -0 -0 -0 -0 -0 -0 -0 0 0 0 0 0 0 0 0 0 0 0 0 0 0 0 0 -0 -0 -1 0 -0 nan
nan -0 -0 -0 -0 -0 -0 -0 -0 -0 -0 -0 -0 -0 -0 -0 -0 -0 -0 -0 -0 -0 -0 -0 -0 -0 -0 0 -0 0 0 0 0 0 0 0 0 0 -0 -0 -0 -0 -0 -0 -0 -0 nan
nan -0 -0 -0 -0 -0 -0 -0 -0 -0 -0 -0 -0 -0 -0 -0 -0 -0 -0 0 -0 -0 -0 -0 -0 -0 -0 -0 -0 -0 0 0 0 0 0 0 -0 -0 -0 -0 -0 -0 -1 0 0 0 nan
nan -0 -0 -0 -0 -0 -0 -0 -0 -0 -0 -0 -0 -0 -0 -0 -0 -0 -0 -0 -0 -0 -0 -0 -0 0 -0 0 -0 -0 0 0 0 0 -0 -0 -0 -0 -0 -0 -0 0 -0 0 0 0 nan
nan -0 -0 -0 -0 -0 -0 -0 -0 -0 -0 -0 -0 -0 -0 -0 -0 -0 -1 -0 -0 -0 -1 -0 -0 0 -0 -0 -0 -0 0 0 -0 -0 -0 -0 -0 -1 -0 0 0 0 0 -1 -1 1 nan
nan -0 -0 -0 -0 -0 -0 -0 -0 -0 -0 -0 -0 -0 -0 -0 -0 -0 -1 -1 -1 -0 -0 0 0 0 -0 -0 -0 -0 -0 -0 -0 0 0 -0 -1 -1 0 0 0 0 -0 -1 -1 0 nan
nan -0 -0 -0 -0 -0 -0 -0 -0 -0 -0 -1 -1 -0 -0 -0 -0 -0 -1 -1 -0 -0 0 0 0 -0 -0 -0 -0 -0 -0 -0 -0 -0 -0 -1 -0 0 0 -0 -0 0 0 -1 -1 -1 nan
nan -0 -0 -0 -0 -0 -0 -0 -0 -0 -0 -0 -0 -1 -0 -0 -0 -0 -0 -0 -0 -0 -0 -0 -0 -0 -0 -0 0 -0 -0 -0 -0 -0 -0 -0 0 0 -0 -0 -0 -1 -0 1 0 0 nan
nan -0 -0 -0 -0 -0 -0 -0 -0 -0 -0 -0 -0 -0 -1 -0 -0 -0 0 0 -0 0 -0 -0 -0 -0 -0 -0 -0 -0 -0 -0 -1 -0 -0 -0 -0 0 -0 -1 -0 -0 -1 -0 -0 -0 nan
nan -0 -0 -0 -0 -0 -0 -0 -0 -0 -0 -0 -0 -0 -0 -0 -0 0 0 0 0 -0 0 -0 -0 -0 -0 -1 -0 -0 -0 -1 -0 -1 -0 0 -0 -0 -1 -1 -0 -0 -0 -1 -0 1 nan
nan -0 -0 -0 -0 -0 -0 -0 -0 -0 -0 -0 -0 -0 -0 -0 -0 0 0 0 -0 -0 -0 -0 -0 -0 -0 -0 -0 -0 -0 -0 -0 -1 -1 -1 -0 -0 -1 -1 -1 -1 -0 -0 -0 0 nan
nan -0 -0 -0 -0 -0 -0 -0 -0 -0 -0 -0 -0 -0 -0 -0 0 0 -0 -0 -0 -0 -0 -0 -0 -0 -0 -0 -0 -0 -0 -0 -1 -0 -1 -1 -0 -0 -0 -0 -0 -1 -0 0 -0 -1 nan
nan -0 -0 -0 -0 -0 -0 -0 -0 -0 0 0 -0 -0 -0 0 0 0 0 -1 -1 -0 -0 -0 -1 -0 -0 -0 -0 -0 -0 -0 -0 -0 -0 -0 -1 -1 -0 -0 -0 -0 -0 -0 -0 -1 nan
nan -0 -0 -0 -0 -0 -0 -0 -0 -0 -0 0 -0 -0 -0 0 -0 -0 -1 -0 -0 -0 -0 -0 -0 -0 -0 -1 -0 -1 -0 -0 -0 -0 -0 0 -1 -2 -0 -1 -1 -0 -0 -0 -0 -0 nan
nan -0 -0 -0 -0 -0 -0 -1 -0 -0 -0 -0 -0 -0 -0 -0 -0 -1 -1 -0 -0 -0 -0 -0 -0 -0 -0 -0 -0 -0 -0 -0 -0 -0 -0 -0 0 -1 -1 -0 -0 -1 -0 -0 -0 -0 nan
nan -0 -0 -0 -0 -0 -0 -0 -0 -0 -0 -0 -0 -0 -0 -0 -1 -1 -0 -0 -0 -0 -0 -0 -0 -0 -0 -0 -0 -0 -0 0 -0 -0 -1 -0 0 -0 -1 -1 -0 -1 -1 -1 -0 -0 nan
nan -0 -0 -0 -0 -0 -1 -0 -0 -0 -0 -0 -0 -0 -1 -1 -1 -0 -0 -0 -0 -0 -0 -0 -0 -0 -0 -0 -0 -0 -0 -0 -0 -0 0 -0 0 -0 -1 -0 -0 -0 -0 -0 -0 -0 nan
nan -0 -0 -0 -0 -0 -0 -0 -0 -0 -0 -0 -0 -0 -2 -2 -0 0 -0 -0 -0 -0 -0 -0 -0 -0 -0 -0 -0 -0 -0 -0 0 -0 -0 -0 0 0 -0 -1 -0 0 -0 -0 0 0 nan
nan -0 -0 -0 -0 -0 -0 -0 -0 -0 -0 -0 -1 -1 -0 -0 -0 -0 -0 -0 -0 -0 -0 -0 -0 -0 0 -0 -0 -0 -0 -0 -0 -0 -0 0 -0 -0 0 0 -0 -0 -0 -1 -0 -0 nan
nan -0 -0 -0 -0 -0 -0 -0 -0 -0 -0 -2 -1 -0 -0 -0 0 0 -0 -0 -0 -0 -0 -0 -0 -0 0 0 -0 -0 -1 -0 -0 -0 -0 -0 0 -0 -0 0 -0 -1 -1 -0 -0 -0 nan
nan -0 -0 -0 -0 -0 -1 -1 -0 -0 -1 -1 -1 -0 -0 -0 0 -0 -0 -0 -0 -0 -0 -0 -0 -0 -0 0 0 0 -0 -0 0 -0 -0 -0 0 -0 -0 -0 0 -1 -0 0 -0 -0 nan
nan -0 -0 -0 -0 -0 -1 -1 -1 -1 -1 -1 -1 -0 -0 -0 -0 -0 -0 -0 -0 -0 -0 -0 -0 -0 -0 -0 0 0 -0 -0 -0 0 0 -0 -0 -0 -0 -0 -0 -0 0 -0 -1 -0 nan
nan -0 -0 -0 -0 -0 -0 -0 -1 -1 -1 -1 -1 -0 -0 -0 -0 0 -0 -0 -0 0 0 -0 -0 -0 -0 -0 0 -0 0 0 0 0 0 0 0 -0 -0 -0 -0 -0 -0 -0 -0 0 nan
nan 0 -0 -0 -0 -0 -0 -0 -0 -0 -0 -0 -1 -0 -0 0 -0 -0 -0 0 -0 -0 -0 0 -0 0 0 0 -0 -0 -0 -0 -0 -1 -0 -0 -0 -0 -0 -0 -0 -0 -0 -0 -0 0 nan
nan -0 -0 -0 -0 -0 -0 -0 -0 -0 -0 -0 -0 -0 -0 -0 0 0 0 -0 -0 -0 0 0 0 0 0 -0 -0 -0 -0 -0 -0 -0 -1 -1 -0 -0 -0 0 -0 -0 -0 -1 -0 -0 nan
nan 0 -0 -0 -0 -0 -0 -0 -0 -0 -0 -0 -0 -0 -0 -0 -0 -0 0 0 -0 0 -0 -0 -0 -0 -0 -0 -0 -0 0 -0 0 -0 -0 -0 -0 -0 -0 0 0 -0 -0 -0 -1 -1 nan
nan nan nan nan nan nan nan nan nan nan nan nan nan nan nan nan nan nan nan nan nan nan nan nan nan nan nan nan nan nan nan nan nan nan nan nan nan nan nan nan nan nan nan nan nan nan nan
Wind_Speed
9 10 11 12 13 14 15 16 17 18 19 21 23 24 24 24 23 23 22 20 19 19 19 18 14 11 8 4 4 7 5 4 5 8 8 7 7 5 8 5 5 13 13 12 12 12 14
9 10 11 12 14 15 16 17 19 20 21 22 23 24 24 24 23 23 22 21 20 19 18 17 13 7 4 4 5 5 5 4 6 7 8 8 5 6 8 8 9 4 10 16 16 19 18
9 10 11 12 14 15 16 17 19 21 22 24 25 25 25 24 23 23 21 21 22 21 16 14 8 3 2 3 2 4 4 4 5 6 6 8 8 6 2 6 6 10 12 15 17 15 12
8 9 11 13 14 15 17 19 20 21 23 25 26 26 25 24 24 23 21 22 22 16 12 7 4 2 3 2 1 1 2 2 3 5 5 6 5 5 7 7 6 7 10 8 6 4 4
8 9 11 12 14 16 17 19 22 24 25 26 27 27 26 24 24 21 21 22 18 10 7 8 6 5 3 4 2 3 4 4 4 3 4 3 2 5 4 7 8 7 13 15 11 5 5
8 10 12 13 14 16 19 21 23 25 26 27 27 27 26 25 23 19 22 20 13 5 12 4 6 4 6 6 7 5 3 3 2 2 1 3 4 6 5 7 11 10 15 17 15 4 11
8 10 12 13 15 17 20 22 24 26 28 28 27 26 25 24 23 19 22 11 8 3 10 5 4 3 6 11 4 2 2 2 2 3 4 3 7 12 14 12 15 15 18 22 21 17 19
9 10 12 14 16 18 20 23 26 28 29 29 27 25 24 23 20 19 18 9 7 5 4 6 5 5 6 15 2 6 2 3 3 8 2 5 12 16 7 10 13 16 19 22 21 16 14
9 11 13 15 16 19 22 24 27 27 28 28 27 25 22 21 14 19 16 16 10 7 2 3 5 6 8 13 3 7 5 3 6 9 10 14 14 9 7 11 15 17 16 22 23 21 19
9 11 13 14 17 20 22 25 27 27 27 27 26 24 20 19 8 17 12 17 9 5 2 6 4 6 14 8 3 11 5 4 3 7 8 11 7 7 7 13 15 24 19 21 22 18 18
9 11 13 15 18 21 24 26 27 27 27 26 25 22 18 17 13 13 15 14 7 3 4 6 4 5 15 7 11 6 9 3 10 13 6 11 14 18 19 20 16 24 21 20 21 21 21
8 11 13 16 18 22 24 26 27 27 26 25 24 19 16 17 11 14 14 9 3 2 2 3 5 9 12 9 5 14 11 8 4 7 8 16 12 12 11 14 15 15 14 17 18 16 14
9 11 13 16 19 22 24 26 26 26 26 25 21 14 17 17 15 15 13 4 2 1 4 6 6 10 8 8 5 11 9 12 6 10 11 18 9 1 16 20 13 15 17 7 10 8 11
8 10 13 16 19 22 25 26 26 27 26 24 19 9 17 16 15 14 11 2 2 2 5 6 5 12 4 13 4 14 9 6 12 8 9 8 6 10 21 13 10 21 14 10 9 8 9
7 10 13 16 19 23 25 27 26 25 24 22 15 5 20 16 13 11 3 5 3 4 5 10 13 4 1 5 10 11 9 4 7 13 7 7 10 23 19 16 13 10 11 14 12 18 14
7 9 13 16 20 22 25 26 26 24 23 21 9 1 24 16 11 9 5 4 2 4 6 3 5 5 7 11 9 13 6 5 6 11 13 7 14 14 12 21 17 6 13 8 6 8 14
6 9 12 15 19 22 24 25 24 22 21 18 5 2 21 13 10 12 4 3 3 5 6 7 4 7 5 6 11 10 4 3 12 12 18 15 10 17 20 17 19 15 5 7 5 5 7
6 8 11 15 19 21 23 24 23 22 21 17 4 2 18 12 8 5 3 3 4 6 7 3 1 4 4 9 8 7 6 7 18 17 18 12 7 11 17 21 9 8 10 14 5 4 6
5 8 11 15 19 21 22 22 21 20 19 15 4 3 14 11 4 4 3 3 5 7 7 6 5 6 8 8 7 8 8 17 7 20 10 8 4 11 14 7 5 4 6 12 9 7 7
4 7 10 15 19 21 21 20 19 17 17 10 3 2 10 16 7 3 2 3 3 6 4 5 3 3 10 8 4 9 13 11 23 21 16 11 10 13 12 17 18 17 18 15 8 4 4
4 6 11 15 17 19 20 19 18 16 15 6 6 4 4 4 7 8 3 3 5 7 6 9 2 9 8 5 8 8 16 17 15 8 11 7 6 13 16 13 13 15 11 20 17 11 8
3 6 10 14 16 19 19 19 18 16 14 19 5 2 6 4 2 3 4 3 5 5 3 4 7 8 9 5 8 16 17 14 5 9 5 5 7 15 15 4 10 13 22 19 14 12 12
5 5 9 13 15 16 18 18 17 18 18 11 8 6 4 2 2 1 2 2 3 6 1 3 5 8 8 10 19 25 17 14 15 8 8 7 10 11 7 17 1 9 14 15 15 10 10
4 5 8 10 13 14 16 17 17 19 22 18 13 6 2 3 2 3 3 1 4 5 4 8 7 7 8 20 15 6 2 3 2 3 8 11 13 5 6 13 4 7 13 12 17 6 9
4 6 7 8 10 12 14 15 15 17 18 16 15 8 3 3 4 5 3 2 3 5 4 4 11 10 13 10 5 4 4 5 5 7 9 7 5 5 5 7 3 6 14 18 14 8 10
9 7 6 8 8 10 11 13 13 14 15 14 15 10 5 8 3 3 3 3 3 5 6 3 10 8 10 3 2 4 4 6 5 9 9 9 4 5 7 6 3 6 17 27 10 4 20
9 6 5 6 6 8 9 11 11 11 13 13 13 11 6 7 4 3 3 2 2 1 2 4 9 7 9 4 3 4 3 3 4 8 10 8 6 8 8 5 3 10 21 22 6 8 32
7 4 4 4 5 6 7 8 10 11 12 12 12 11 7 6 6 5 3 2 3 1 2 5 1 8 4 5 3 3 3 4 3 4 6 5 6 5 5 5 2 18 13 7 10 25 25
6 3 3 4 5 6 6 6 7 9 11 10 8 8 7 6 8 8 5 3 4 1 1 2 1 1 2 3 2 2 4 1 3 3 5 2 4 4 3 6 20 16 19 11 22 24 24
Wind_Direction
36 34 27 19 13 13 9 7 5 1 358 354 352 348 346 344 343 339 339 333 330 324 320 316 311 291 271 235 234 234 246 237 215 212 215 206 207 225 246 249 242 244 265 264 264 277 274
32 30 21 16 10 8 7 4 1 360 356 354 351 348 347 344 343 340 336 332 331 327 323 319 316 295 227 222 234 238 233 237 221 215 220 216 223 227 267 252 237 315 257 270 277 271 265
31 22 15 12 8 5 4 1 359 358 355 353 351 350 349 345 343 341 338 335 331 327 327 319 308 281 205 219 246 242 233 230 223 225 231 233 238 219 223 257 256 277 284 275 258 261 257
23 18 11 6 5 2 0 359 357 356 354 352 351 350 349 346 344 342 341 336 330 334 340 12 15 73 102 85 80 130 179 229 245 246 239 232 230 238 241 278 264 267 270 274 112 182 236
15 11 7 4 1 0 359 357 355 354 354 352 350 349 348 346 346 345 344 340 332 348 5 11 50 90 66 84 43 322 277 257 268 240 226 241 232 245 232 253 268 217 273 276 297 203 263
9 4 2 2 0 359 357 356 354 353 351 350 349 348 346 345 347 349 349 342 339 13 2 40 45 101 42 340 319 309 295 235 238 206 217 223 229 245 228 220 263 288 275 278 270 252 273
2 358 359 0 358 357 356 354 352 350 348 347 347 347 344 344 346 351 359 351 352 339 26 41 16 83 31 13 17 359 299 236 216 231 253 211 249 245 262 250 273 279 274 274 278 279 268
353 355 356 358 356 354 354 352 350 349 346 345 345 345 345 343 346 354 354 38 26 321 322 26 61 53 7 357 333 17 338 246 228 275 225 225 250 275 281 262 253 259 269 272 281 274 265
349 352 355 355 353 352 351 351 349 347 344 344 345 346 348 346 344 351 0 11 359 1 311 21 49 33 7 339 17 348 333 288 267 269 257 258 277 298 251 255 260 256 257 272 278 293 278
348 353 352 352 352 351 350 349 347 346 346 345 346 347 350 352 353 347 350 350 353 9 218 17 7 9 351 350 128 11 346 290 253 291 294 273 282 271 270 266 276 282 286 284 276 278 274
348 350 349 351 352 350 349 348 346 346 347 346 346 345 350 358 344 348 338 339 349 357 309 2 9 336 356 36 323 25 342 311 288 288 282 265 295 298 288 286 289 279 290 281 278 272 274
346 346 349 352 350 349 348 348 347 346 346 344 343 342 349 354 355 346 342 337 346 244 267 0 347 358 353 7 18 339 6 4 297 287 252 277 306 287 321 313 281 294 299 295 266 256 254
345 346 350 351 350 349 348 348 347 345 346 344 343 342 355 357 352 348 343 340 293 35 355 358 342 341 329 341 2 6 11 34 13 332 319 310 302 67 17 344 323 336 326 296 263 236 254
339 345 350 351 350 349 349 348 349 347 346 345 345 351 6 356 351 346 344 268 9 20 359 349 321 322 3 9 29 353 346 343 41 360 306 323 298 19 356 347 319 302 281 275 293 287 305
339 349 353 351 351 351 349 350 350 348 346 348 347 18 3 4 358 353 349 47 21 5 339 328 310 303 36 32 346 349 5 20 39 27 354 313 282 335 326 337 318 325 291 325 275 263 263
341 352 354 354 353 352 352 350 351 351 349 349 352 61 7 5 8 14 62 92 68 30 331 312 326 15 326 351 348 347 317 52 359 19 6 325 300 307 317 321 291 303 315 301 246 273 264
343 353 355 356 355 355 353 353 353 354 354 351 4 78 5 5 20 47 69 78 92 42 11 351 329 302 337 346 333 331 322 89 17 351 337 320 278 299 306 304 302 306 314 305 286 309 281
346 354 357 356 359 357 356 355 356 357 360 2 24 69 10 17 44 45 59 34 39 13 17 21 35 24 354 345 320 314 315 324 354 350 335 313 290 292 307 306 308 89 47 14 357 354 302
345 351 359 357 359 1 1 360 1 3 6 4 46 34 26 40 56 62 88 74 53 24 25 16 11 28 17 338 319 316 334 335 332 337 322 317 306 314 312 314 96 11 336 337 308 283 287
346 352 355 358 1 3 7 5 8 11 12 22 39 16 23 52 62 63 57 45 31 35 59 9 13 32 349 326 320 300 317 318 321 317 333 327 293 298 305 305 307 306 320 317 270 258 315
347 349 358 359 3 5 10 12 16 23 26 51 54 76 31 20 49 66 66 41 19 8 22 24 51 357 345 303 323 326 322 328 340 3 351 350 304 336 309 306 297 290 347 28 43 32 21
330 350 352 358 6 7 9 19 25 33 40 61 78 98 81 85 71 81 30 51 19 345 304 29 351 323 317 286 319 310 317 327 339 306 312 346 317 324 314 326 19 45 42 30 20 20 13
309 329 348 357 7 9 13 20 29 36 46 67 70 83 113 50 91 85 52 46 53 343 318 17 331 311 315 330 312 293 298 275 262 293 317 328 335 327 338 337 192 44 10 24 4 28 358
266 329 343 356 7 9 22 27 31 38 48 58 66 76 88 98 77 69 94 66 1 356 304 326 343 331 328 319 312 284 242 215 190 298 258 323 342 334 329 342 30 125 34 355 346 59 35
278 308 333 354 6 12 27 33 35 42 48 49 57 60 95 108 100 131 84 46 349 2 360 318 352 329 332 324 345 347 23 358 6 11 3 352 313 332 349 343 125 55 4 346 337 334 26
268 285 316 352 8 23 23 38 41 39 42 42 52 55 89 125 100 109 98 62 26 350 355 333 345 3 357 340 350 359 15 338 341 333 357 356 3 344 339 337 329 24 342 332 319 240 354
250 283 324 357 13 22 22 25 41 41 38 36 46 50 84 104 124 111 111 99 102 6 282 309 341 353 8 3 32 5 356 340 326 328 341 358 355 2 344 328 111 4 344 326 331 338 330
230 270 321 338 5 18 20 23 24 27 27 25 27 34 65 104 123 131 138 150 144 96 13 338 266 16 352 15 359 357 302 16 290 6 344 3 332 352 325 308 327 7 351 353 339 315 317
208 242 297 331 358 359 4 18 19 12 21 21 26 42 83 115 132 122 89 117 149 97 18 9 45 295 334 332 306 294 288 242 325 347 19 19 36 311 306 307 326 332 336 329 330 321 323
Height
1572 1570 1568 1566 1564 1562 1560 1557 1554 1551 1548 1544 1541 1537 1533 1529 1525 1521 1517 1514 1510 1507 1504 1501 1500 1499 1498 1500 1499 1497 1497 1498 1498 1498 1500 1501 1502 1501 1499 1498 1499 1495 1490 1490 1489 1488 1486
1573 1571 1569 1567 1564 1562 1560 1557 1554 1551 1547 1544 1540 1536 1532 1527 1523 1519 1515 1510 1507 1504 1501 1498 1497 1496 1497 1500 1496 1496 1496 1497 1497 1497 1497 1498 1499 1499 1498 1497 1496 1492 1490 1487 1485 1483 1481
1573 1571 1569 1567 1565 1562 1559 1556 1553 1550 1546 1542 1538 1534 1530 1525 1520 1516 1512 1508 1504 1501 1498 1495 1493 1494 1495 1496 1495 1495 1496 1496 1496 1496 1496 1496 1496 1498 1497 1493 1492 1491 1488 1481 1477 1477 1474
1573 1571 1569 1567 1565 1562 1559 1556 1553 1549 1545 1541 1537 1532 1528 1523 1519 1514 1510 1506 1502 1499 1496 1494 1494 1494 1495 1495 1495 1496 1496 1496 1496 1495 1495 1494 1494 1496 1495 1492 1488 1485 1482 1471 1467 1473 1469
1573 1571 1570 1567 1565 1562 1560 1556 1553 1549 1544 1540 1535 1530 1526 1522 1517 1512 1508 1504 1499 1497 1496 1494 1495 1494 1498 1498 1498 1497 1496 1495 1495 1494 1494 1496 1496 1494 1493 1489 1482 1479 1466 1460 1464 1467 1467
1573 1572 1570 1567 1565 1562 1559 1556 1552 1547 1543 1539 1534 1529 1524 1519 1515 1511 1507 1502 1498 1497 1496 1495 1495 1498 1501 1500 1497 1495 1495 1495 1495 1495 1495 1495 1494 1490 1488 1484 1471 1471 1468 1461 1464 1462 1462
1573 1571 1569 1567 1565 1562 1559 1555 1551 1546 1541 1536 1532 1527 1522 1517 1513 1509 1506 1501 1503 1500 1498 1499 1500 1499 1500 1498 1496 1495 1494 1494 1495 1495 1491 1494 1491 1480 1474 1474 1472 1472 1470 1464 1456 1460 1460
1573 1571 1569 1567 1564 1561 1558 1554 1550 1545 1540 1535 1530 1525 1521 1516 1513 1510 1507 1504 1506 1507 1503 1500 1499 1500 1500 1499 1497 1496 1496 1496 1493 1490 1492 1492 1485 1475 1477 1477 1475 1471 1467 1457 1451 1450 1453
1573 1571 1569 1567 1564 1561 1557 1553 1549 1544 1538 1533 1528 1523 1519 1515 1511 1509 1506 1505 1504 1503 1504 1502 1501 1501 1501 1499 1498 1497 1497 1494 1491 1488 1486 1483 1472 1476 1476 1472 1470 1461 1464 1458 1451 1445 1443
1573 1571 1569 1566 1563 1560 1557 1552 1547 1542 1536 1531 1526 1521 1517 1514 1513 1509 1506 1504 1502 1502 1498 1506 1504 1504 1503 1498 1498 1497 1495 1497 1491 1486 1482 1478 1473 1475 1472 1469 1466 1454 1454 1450 1448 1446 1437
1572 1570 1568 1566 1563 1560 1555 1550 1545 1540 1535 1530 1525 1520 1516 1513 1512 1510 1508 1504 1503 1504 1495 1510 1507 1505 1504 1503 1502 1498 1496 1493 1488 1485 1487 1472 1472 1471 1469 1463 1462 1451 1451 1447 1442 1437 1433
1571 1569 1567 1565 1562 1558 1554 1549 1543 1538 1533 1528 1523 1519 1516 1513 1510 1509 1505 1503 1503 1500 1499 1511 1510 1509 1506 1504 1504 1501 1498 1496 1494 1488 1481 1477 1479 1475 1469 1466 1461 1455 1450 1443 1434 1430 1433
1571 1569 1566 1564 1561 1557 1552 1547 1542 1536 1531 1526 1522 1518 1515 1512 1510 1507 1505 1504 1501 1496 1512 1513 1516 1514 1513 1510 1506 1506 1504 1504 1504 1495 1476 1479 1470 1474 1477 1469 1458 1457 1452 1442 1428 1427 1411
1570 1568 1566 1563 1560 1556 1551 1546 1540 1535 1529 1525 1520 1518 1516 1512 1509 1507 1504 1503 1502 1520 1521 1524 1519 1515 1512 1515 1509 1509 1506 1505 1514 1511 1501 1486 1474 1477 1482 1479 1474 1465 1458 1446 1443 1420 1412
1569 1567 1565 1562 1559 1555 1550 1544 1539 1534 1528 1524 1519 1517 1516 1512 1509 1506 1506 1511 1526 1532 1536 1531 1519 1513 1513 1519 1521 1512 1511 1514 1521 1519 1516 1502 1484 1483 1485 1483 1480 1462 1457 1461 1460 1440 1428
1568 1567 1565 1562 1558 1554 1549 1543 1538 1533 1527 1522 1519 1518 1516 1513 1510 1507 1508 1528 1535 1539 1538 1534 1526 1524 1519 1523 1522 1521 1511 1522 1522 1523 1522 1512 1506 1492 1484 1485 1473 1465 1468 1458 1445 1443 1425
1567 1566 1564 1562 1558 1553 1548 1542 1537 1532 1526 1522 1518 1518 1518 1514 1512 1511 1522 1534 1537 1540 1540 1537 1534 1531 1532 1533 1530 1525 1519 1522 1525 1522 1521 1513 1505 1493 1487 1479 1474 1471 1467 1465 1453 1444 1431
1567 1565 1564 1561 1557 1552 1547 1541 1536 1531 1526 1521 1519 1519 1519 1515 1517 1527 1532 1538 1542 1541 1540 1539 1538 1539 1538 1537 1533 1528 1524 1524 1526 1525 1518 1514 1507 1496 1485 1476 1472 1474 1485 1479 1466 1460 1453
1566 1565 1563 1560 1556 1552 1547 1542 1536 1531 1526 1522 1522 1523 1522 1518 1522 1531 1539 1542 1544 1541 1541 1540 1539 1542 1544 1541 1539 1531 1529 1529 1526 1525 1520 1516 1504 1500 1483 1478 1483 1487 1485 1483 1480 1469 1458
1566 1565 1563 1560 1556 1552 1547 1542 1537 1532 1527 1524 1525 1525 1527 1527 1535 1536 1538 1542 1543 1545 1544 1543 1544 1544 1545 1542 1541 1535 1531 1528 1527 1524 1519 1516 1507 1503 1501 1493 1485 1482 1481 1478 1475 1471 1467
1565 1565 1562 1560 1556 1552 1547 1542 1537 1533 1529 1525 1526 1536 1536 1538 1540 1542 1542 1546 1545 1546 1546 1545 1543 1544 1544 1542 1538 1534 1531 1528 1524 1524 1520 1517 1510 1502 1498 1494 1493 1487 1487 1483 1479 1477 1480
1564 1564 1562 1560 1556 1552 1548 1543 1539 1534 1532 1528 1532 1536 1539 1543 1545 1543 1544 1548 1548 1549 1550 1546 1546 1544 1543 1543 1541 1538 1534 1530 1528 1524 1520 1517 1510 1502 1493 1490 1489 1494 1494 1495 1490 1492 1486
1563 1562 1561 1559 1556 1552 1549 1544 1540 1536 1532 1531 1535 1537 1537 1546 1546 1544 1548 1549 1550 1551 1549 1548 1547 1544 1540 1539 1539 1533 1533 1531 1531 1529 1522 1518 1512 1504 1492 1486 1487 1494 1508 1506 1501 1502 1498
1561 1560 1560 1558 1555 1553 1549 1545 1542 1538 1535 1534 1536 1536 1539 1544 1546 1547 1550 1550 1550 1551 1551 1549 1547 1544 1542 1537 1532 1528 1528 1527 1528 1527 1526 1520 1513 1504 1499 1487 1491 1512 1514 1510 1507 1507 1510
1560 1559 1558 1556 1554 1552 1549 1547 1544 1541 1539 1537 1537 1537 1538 1543 1547 1550 1549 1550 1550 1550 1551 1550 1548 1546 1541 1537 1531 1528 1525 1524 1523 1524 1524 1521 1517 1510 1506 1497 1501 1510 1513 1512 1510 1504 1510
1560 1559 1559 1556 1554 1551 1548 1546 1545 1544 1542 1540 1537 1538 1538 1542 1549 1550 1549 1550 1550 1549 1548 1549 1547 1544 1542 1539 1534 1534 1532 1532 1526 1525 1524 1521 1518 1515 1509 1507 1502 1520 1519 1512 1507 1499 1509
1561 1562 1561 1558 1556 1554 1550 1545 1545 1544 1543 1541 1539 1539 1537 1541 1547 1549 1548 1549 1551 1551 1551 1550 1548 1545 1543 1539 1535 1535 1534 1537 1531 1530 1527 1522 1522 1519 1515 1510 1514 1525 1520 1511 1507 1510 1511
1558 1561 1561 1561 1558 1553 1551 1548 1545 1544 1543 1542 1540 1539 1539 1541 1546 1548 1548 1549 1550 1550 1549 1549 1548 1547 1545 1542 1541 1540 1537 1536 1539 1538 1537 1535 1532 1525 1521 1514 1516 1526 1521 1523 1525 1519 1514
1556 1558 1561 1562 1560 1558 1555 1549 1546 1544 1542 1542 1540 1540 1540 1542 1546 1548 1548 1548 1549 1550 1550 1549 1550 1550 1549 1547 1547 1546 1538 1541 1541 1533 1541 1538 1546 1545 1540 1526 1528 1529 1527 1525 1522 1517 1511